Other Surface Observations
Issued by NWS Tucson, AZ

Home | Current Version | Previous Version | Text Only | Print | Product List | Glossary On
Versions: 1 2 3 4 5 6 7 8 9 10 11 12 13 14 15 16 17 18 19 20 21 22 23 24 25 26 27 28 29 30 31 32 33 34 35 36 37 38 39 40 41 42 43 44 45 46 47 48 49 50
000
SXUS55 KTWC 051915
OSOTWC

WEATHER ROUNDUP FOR SOUTHEAST ARIZONA
NATIONAL WEATHER SERVICE TUCSON AZ
1215 PM MST SUN JUL 05 2015

AZZ504>506-514-052015-
LOCATION       SKY/WX    TMP DP  RH WIND       PRES   REMARKS
TUCSON         LGT RAIN  86  63  45 CALM      30.06F
DAVIS-MONTHAN  PTSUNNY   85  64  48 VRB3      30.05F
CHILDRENS PARK N/A       84  63  50 E5                PIMA CO DEQ
ALVERNON/22ND  N/A      N/A N/A N/A N/A               PIMA CO DEQ
CHERRY/GLENN   N/A      N/A N/A N/A N/A               PIMA CO DEQ
TANGERINE      N/A       86 N/A N/A SE3               PIMA CO DEQ
CONTL RANCH    N/A       89  63  42 E3                PIMA CO DEQ
GRANT/1ST      N/A       86  63  46 SE3               PIMA CO DEQ
CRAYCROFT/22ND N/A      N/A N/A N/A N/A               PIMA CO DEQ
GOLFLINKS/KOLB N/A      N/A N/A N/A N/A               PIMA CO DEQ
AJO/12TH       N/A       85  65  51 SE8               PIMA CO DEQ
SAGUARO EAST   N/A      N/A N/A N/A N/A               PIMA CO DEQ
FAIRGROUNDS    N/A       82 N/A N/A SW10              PIMA CO DEQ
SAGUARO        N/A       85  63  48 S4                *SABINO CYN
SAN CARLOS     N/A       84  63  50 SE5G10            *SAN CARLOS
GREEN VALLEY   N/A       81  64  57 S9                PIMA CO DEQ
HORSE CAMP CYN N/A       77  62  60 W7G14             *ARAVAIPA CYN
RINCON MTNS    N/A       60  55  83 W2                *NR MANNING CAMP
$$

AZZ509>511-052015-
LOCATION       SKY/WX    TMP DP  RH WIND       PRES   REMARKS
SAFFORD        CLOUDY    84  60  44 NW9       30.05F
STRAY HORSE    N/A       64  56  74 W11G15            *
TRAIL CABIN    N/A       71  58  64 NW7G13            *N OF GRANVILLE
BLACK HILLS    N/A       83  59  45 NW9G14            *N OF FT THOMAS
DRY LAKE       N/A       64  57  78 W3                *NATANES MTNS
NOON CREEK     N/A       75  63  66 NE3               *PINALENO MTNS
COLUMBINE      N/A       58  49  73 N2G11             *PINALENO MTNS
GUTHRIE        N/A       70  57  64 W12G19            *SW OF GUTHRIE
$$

AZZ502-503-513-052015-
LOCATION       SKY/WX    TMP DP  RH WIND       PRES   REMARKS
NOGALES        CLOUDY    81  58  45 S7        30.14F
SELLS          N/A       89  64  44 S6G14             *
SASABE         N/A       84  65  53 SW9G15            *ALTAR VLY
HOPKINS        N/A       62  61  95 SE2               *SANTA RITA MTNS
CARR CYN       N/A       74  62  67 N2                *W OF HEREFORD
$$

AZZ507-508-512-052015-
LOCATION       SKY/WX    TMP DP  RH WIND       PRES   REMARKS
SIERRA VISTA   LGT RAIN  75  59  57 VRB1      30.20S
DOUGLAS        CLOUDY    74  64  71 NW3       30.16F
EMPIRE MTNS    N/A       74  62  66 S4G10             *LAS CIENEGAS NCA
MULESHOE RANCH N/A       75  62  63 NW6G10            *PRESERVE
HEADQUARTERS   N/A       73  60  63 W3                *CHIRICAHUA MTNS
$$

.............................NOTES.............................
THIS IS AN AUTOMATED COLLECTIVE WITH MINIMAL QUALITY CONTROL.
PIMA CO DEQ SITES HAVE NONSTANDARD WIND SENSOR HEIGHTS.
PIMA CO DEQ SITES DO NOT REPORT WIND GUSTS.
* INDICATES WIND SENSORS LOCATED AT 20 FEET INSTEAD OF 33 FEET.
..............................KEY..............................
SKY/WX - SKY CONDITION/WEATHER
TMP    - TEMPERATURE IN FAHRENHEIT
DP     - DEWPOINT IN FAHRENHEIT
RH     - RELATIVE HUMIDITY IN PERCENT
WIND   - DIRECTION AND SPEED IN MILES PER HOUR (MPH)
VRB    - VARIABLE WIND DIRECTION
PRES   - MEAN SEA LEVEL PRESSURE IN INCHES OF MERCURY
         F - FALLING PRESSURE   R - RISING PRESSURE
         S - STEADY PRESSURE
VSB    - VISIBILITY IN MILES
HX     - HEAT INDEX IN FAHRENHEIT
WCI    - WIND CHILL INDEX IN FAHRENHEIT
N/A    - NOT AVAILABLE
AFB    - AIR FORCE BASE
         DAVIS-MONTHAN IS DAVIS-MONTHAN AIR FORCE BASE
CYN    - CANYON
MTNS   - MOUNTAINS
NCA    - NATIONAL CONSERVATION AREA
NR     - NEAR
VLY    - VALLEY
CONTL  - CONTINENTAL
PIMA CO DEQ - PIMA COUNTY DEPT OF ENVIRONMENTAL QUALITY



USA.gov is the U.S. government's official web portal to all federal, state and local government web resources and services.